Location: Hawks Ness
(60.2333°N, 1.1667°W)
Time: 16:04:41
(UTC+00:00)

Cosmos 2237 Rocket - Pass Details

Date: 22 October 2019
Orbit: 834 x 851 km, 71.0° (Epoch: 22 November)

Event Time Altitude Azimuth Distance (km) Brightness Sun altitude
Exits shadow 05:57:40 - 244° (WSW) 2,934 4.5 -8.5°
Reaches altitude 10° 05:58:54 10° 247° (WSW) 2,478 4.1 -8.3°
Maximum altitude 06:04:27 51° 324° (NW) 1,063 2.5 -7.6°
Drops below altitude 10° 06:10:03 10° 40° (NE) 2,493 5.1 -6.9°
Sets 06:12:36 0° 46° (NE) 3,431 5.9 -6.6°
